Regional Weather Roundup
Issued by NWS

Home | Current Version | Previous Version | Text Only | Print | Product List | Glossary On
Versions: 1 2 3 4 5 6 7 8 9 10 11 12 13 14 15 16 17 18 19 20 21 22 23 24 25 26 27 28 29 30 31 32 33 34 35 36 37 38 39 40 41 42 43 44 45 46 47 48 49 50
000
ASUS43 KMPX 221501
RWRMN
WEATHER ROUNDUP FOR MINNESOTA
NATIONAL WEATHER SERVICE TWIN CITIES/CHANHASSEN MN
900 AM CST SUN JAN 22 2017


NOTE: "FAIR" INDICATES FEW OR NO CLOUDS BELOW 12,000 FEET WITH NO
SIGNIFICANT WEATHER AND/OR OBSTRUCTIONS TO VISIBILITY. N/A MEANS
CURRENT SKY AND/OR WEATHER CONDITIONS ARE NOT AVAILABLE.

MNZ060>063-068>070-221600-
   Twin Cities Metro

CITY           SKY/WX    TMP DP  RH WIND       PRES   REMARKS
TWIN CITIES    CLOUDY    35  33  92 NW5       29.69R WCI  31
ST PAUL        CLOUDY    35  35 100 NW5       29.70R FOG     WCI  31
CRYSTAL        CLOUDY    35  33  92 NW5       29.68R FOG     WCI  31
BLAINE         CLOUDY    37  37 100 NW5       29.68R FOG
LAKEVILLE      CLOUDY    34  34 100 W3        29.68R FOG
EDEN PRAIRIE   CLOUDY    35  34  96 NW6       29.68R FOG     WCI  30
SOUTH ST PAUL  CLOUDY    35  35  99 CALM      29.69R FOG
LAKE ELMO      CLOUDY    34  34 100 CALM      29.68R FOG
$$
MNZ001>005-007-008-013>017-022>024-027-028-221600-
   Northwest Minnesota

CITY           SKY/WX    TMP DP  RH WIND       PRES   REMARKS
BEMIDJI        FOG       32  32 100 CALM      29.67R VSB 1/4
HALLOCK        FOG       34  32  93 CALM      29.68S VSB<1/4
ROSEAU         FOG       34  30  86 CALM      29.69R VSB 1/4
WARROAD        FOG       34  28  80 CALM      29.69S VSB<1/4
THIEF RVR FALL FOG       33  32  96 CALM      29.69R VSB 1/4
CROOKSTON      FOG       34  34 100 W3        29.70S VSB 1/2
FOSSTON        FOG       32  30  93 CALM      29.69R VSB<1/4
DETROIT LAKES  FOG       34  34 100 CALM      29.69R VSB 1/4
MOORHEAD       CLOUDY    34  32  93 NW8       29.72R FOG     WCI  27
PARK RAPIDS    CLOUDY    34  31  88 W6        29.67R WCI  29
MAHNOMEN       FOG       33  32  99 CALM      29.69R VSB 1/4
$$
MNZ006-009>011-018-025>026-221600-
   North Central Minnesota

CITY           SKY/WX    TMP DP  RH WIND       PRES   REMARKS
BAUDETTE       FOG       33  32  96 NW3       29.67S VSB 1/2
FLAG ISLAND    FOG       32  32 100 CALM      29.68S VSB 1
INTL FALLS     FOG       34  33  96 CALM      29.67R VSB 1/4
WASKISH        FOG       34  34 100 CALM      29.68R VSB 1/4
BIG FORK       FOG       34  34 100 CALM      29.66R VSB 1/4
LONGVILLE      FOG       34  34 100 CALM      29.66S VSB 1/2
GRAND RAPIDS   FOG       34  33  96 N3        29.67R VSB 1/4
CRANE LAKE     FLURRIES  30  30 100 CALM      29.69R
ORR            MIX PCPN  32  30  93 CALM      29.64R
COOK           FLURRIES  34  34 100 CALM      29.66R
WALKER         FOG       32  32 100 CALM      29.67R VSB<1/4
$$
MNZ012-019>021-037-221600-
   Northeast Minnesota

CITY           SKY/WX    TMP DP  RH WIND       PRES   REMARKS
DULUTH         FOG       34  34 100 NW5       29.64R VSB 1/2 WCI  30
ELY            LGT SNOW  32  32 100 CALM      29.64R
HIBBING        CLOUDY    32  32 100 NW6       29.64S WCI  26
EVELETH        CLOUDY    35  35  99 N3        29.65R
DULUTH HARBOR  CLOUDY    36  34  93 CALM      29.67R
TWO HARBORS    CLOUDY    37  34  87 CALM      29.62R
SILVER BAY     CLOUDY    36  36 100 CALM      29.62R FOG
GRAND MARAIS     N/A     38  33  82 VRB3      29.64R
G MARAIS ARPRT CLOUDY    32  28  86 N5        29.61R WCI  27
$$
MNZ029>031-032-039>041-046>048-054>057-064-221600-
   West Central Minnesota

CITY           SKY/WX    TMP DP  RH WIND       PRES   REMARKS
FERGUS FALLS   FOG       32  32 100 NW7       29.75R VSB 1/4 WCI  26
WHEATON        CLOUDY    39  39 100 W8        29.75R
MORRIS         FOG       34  34 100 NW9       29.72R VSB 1/4 WCI  26
ALEXANDRIA     FOG       33  33 100 NW3       29.71R VSB 1/4
ELBOW LAKE     SNOW      32  32 100 NW8       29.72R VSB<1/4 WCI  25
WADENA         CLOUDY    34  34 100 CALM      29.69R FOG
GLENWOOD       FOG       34  34 100 W5        29.71R VSB<1/4 WCI  30
APPLETON       FOG       36  34  93 NW9       29.74R VSB 1/2
ORTONVILLE     CLOUDY    34  32  93 CALM      29.73R FOG
MADISON        CLOUDY    36  36 100 NW7       29.74R FOG
WILLMAR        FOG       34  34 100 CALM      29.73R VSB 3/4
$$
MNZ033>034-036-042>043-049>051-058-059-221600-
   Central Minnesota

CITY           SKY/WX    TMP DP  RH WIND       PRES   REMARKS
ST CLOUD       CLOUDY    34  34 100 NW7       29.69R FOG     WCI  28
SAUK CENTRE    CLOUDY    33  33 100 W3        29.70R FOG
PAYNESVILLE    CLOUDY    33  33 100 W3        29.71R FOG
AITKIN         CLOUDY    36  34  93 CALM      29.66R FOG
PINE RIVER     FOG       34  34 100 CALM      29.71R VSB 3/4
BRAINERD       CLOUDY    33  33 100 W3        29.68R FOG
STAPLES        FOG       34  34 100 W5        29.69R VSB 1/2 WCI  30
LONG PRAIRIE   CLOUDY    32  32 100 W3        29.69R FOG
LITTLE FALLS   FOG       34  32  93 CALM      29.70R VSB 1
LITCHFIELD     CLOUDY    36  36 100 CALM      29.71R FOG
BUFFALO        CLOUDY    34  33  97 W5        29.70R FOG     WCI  30
MAPLE LAKE     CLOUDY    35  35 100 NW3       29.70R FOG
HUTCHINSON     CLOUDY    35  35 100 W5        29.72R FOG     WCI  31
$$
MNZ037-044-045-052-053-221600-
   East Central Minnesota

CITY           SKY/WX    TMP DP  RH WIND       PRES   REMARKS
PRINCETON      CLOUDY    36  36 100 W3        29.69R FOG
MORA           CLOUDY    34  32  93 CALM      29.68R
CAMBRIDGE      CLOUDY    36  36 100 CALM      29.67R FOG
RUSH CITY      CLOUDY    34  34 100 W3        29.68R FOG
MOOSE LAKE     CLOUDY    34  34 100 CALM      29.64R FOG
HINCKLEY       CLOUDY    34  34 100 W3        29.67R FOG
CLOQUET        CLOUDY    34  34 100 NW3       29.65R FOG
MCGREGOR       CLOUDY    34  34 100 NW3       29.66R VSB 1/4
$$
MNZ071>073-080-081-089-090-097-098-221600-
   Southwest Minnesota

CITY           SKY/WX    TMP DP  RH WIND       PRES   REMARKS
MONTEVIDEO     FOG       34  34 100 N8        29.75R VSB 1/4 WCI  27
GRANITE FALLS  DRZL/FOG  35  35 100 W8        29.75R VSB 1/4 WCI  28
CANBY          CLOUDY    35  34  96 CALM      29.75R FOG
MARSHALL       CLOUDY    34  33  96 NW10      29.74R WCI  26
REDWOOD FALLS  CLOUDY    34  33  96 W9        29.72R FOG     WCI  27
OLIVIA         CLOUDY    34  34 100 NW8       29.71R FOG     WCI  27
PIPESTONE      FOG       34  34 100 N10       29.72R VSB 1/2 WCI  26
WINDOM         CLOUDY    34  34 100 NW9       29.71R FOG     WCI  26
WORTHINGTON    MIX PCPN  33  33 100 NW9       29.72R VSB 1/2 WCI  25
JACKSON        FOG       32  32 100 NW9       29.71R VSB 3/4 WCI  24
TRACY          FOG       34  35 100 NW9       29.73R VSB 1/4 WCI  27
SLAYTON        FOG       32  32 100 NW9       29.72R VSB 3/4 WCI  24
$$
MNZ065>067-074>077-082>085-091>093-221600-
   South Central Minnesota

CITY           SKY/WX    TMP DP  RH WIND       PRES   REMARKS
MANKATO        FOG       34  33  96 NW7       29.70R VSB 1/4 WCI  28
NEW ULM        CLOUDY    34  34 100 NW6       29.71R FOG     WCI  29
ST JAMES       CLOUDY    34  34 100 W9        29.72R FOG     WCI  26
FAIRMONT       CLOUDY    34  33  96 NW12      29.70S FOG     WCI  25
GLENCOE        FOG       35  35 100 NW5       29.69R VSB 3/4 WCI  31
OWATONNA       FOG       34  34 100 NW3       29.68R VSB 1/4
WASECA         FOG       34  34 100 NW5       29.70R VSB 1/4 WCI  30
ALBERT LEA     CLOUDY    34  34 100 CALM      29.67R FOG
$$
MNZ078>079-086>088-094>096-221600-
   Southeast Minnesota

CITY           SKY/WX    TMP DP  RH WIND       PRES   REMARKS
ROCHESTER      FOG       33  33 100 NW8       29.65R VSB<1/4 WCI  26
RED WING       FOG       36  34  93 W5        29.67R VSB<1/4
STANTON        FOG       35  34  96 W3        29.67R VSB 1/4
DODGE CENTER   FOG       34  34 100 CALM      29.66R VSB<1/4
WINONA         FOG       34  34 100 CALM      29.67R VSB 1/2
AUSTIN         FOG       34  32  93 NW3       29.66R VSB 1
PRESTON        FOG       32  32  99 NW3       29.65R VSB<1/4
$$
ABBREVIATIONS USED IN REMARKS
   TC - TEMPERATURES IN CELSIUS
  WCI - WIND CHILL INDEX
   HX - HEAT INDEX
  VSB - VISIBILITY
$$




USA.gov is the U.S. government's official web portal to all federal, state and local government web resources and services.